STARLINK-30328, 57638

Orbit data source: Space-Track

STARLINK-30328, 57638 is a payload satellite owned by SpaceX/Seattle (US) in LEO that was launched on Thu, 17 Aug 2023 UTC via an FALCON 9 launch vehicle from the Air Force Eastern Test Range (AFETR). Payload-class satellites include a variety of spacecraft equipped with specific instruments for various scientific and technological missions. These include communications satellites like Starlink; space stations such as the ISS; scientific satellites like the Hubble; Earth observation satellites from companies like Planet Labs, Umbra, and HawkEye 360; GPS; miniature CubeSats for education and research; and military/defense satellites.

Loading next visibility...
Identifier
57638, 2023-122G
Orbit
LEO
Country
Flag of USUS
Related business
Manufacturer
SpaceX/Seattle
Mission
Operational Commercial Communications
Bus & Motor
STARLINK V2M, Unknown motor
Mass
730 kg wet, ~700 kg dry
Launch date (UTC)
2023-08-17 (2 years ago)
Launch vehicle
FALCON 9
Launch site
Air Force Eastern Test Range (AFETR)
Object type
Payload
Rocket body
Debris
Shape & HBR
Box + 2 Pan, 14.5 m
Radar Cross Section
33.884 m², Large (>1 m²)

Expand to show TLE details & history
Last TLE update: 7 hours ago

TLE from 7 hours ago
0 STARLINK-30328
1 57638U 23122G   25243.47092278 -.00000204  00000-0  16220-8 0  9990
2 57638  43.0020  34.9574 0001222 272.4650  87.6052 15.02529808113738
Epoch: 2025-08-31T11:18Z
TLE epoch observation values (Epoch: 2025-08-31T11:18:07.728Z)
Latitude
-0.00004°
Longitude
-114.46523°
Altitude
558.841 km
Speed
7.584 km/s
True Right ascension
02h 19m 49s
True Declination
0° 00' 00"
Sunlit
Object was in full shadow at epoch
Visualization orbit readout
Latitude
Unknown
Longitude
Unknown
Altitude
Unknown
Speed
Unknown
Apparent Right ascension
Unknown
Apparent Declination
Unknown
Sunlit
N/A
Visualization observer readout
Local Sidereal Time
10:22:40
Azimuth
Unknown
Elevation
Unknown
Doppler factor
Unknown
Orbital elements
Apogee altitude
561.87 km
Perigee altitude
560.174 km
Semi-major axis
6,939.159 km
Eccentricity
0.00012
Inclination
43.002°
RAAN
34.9574°
Arg. of periapsis
272.465°
True anomaly
87.61919°
Mean anomaly
87.6052°
Eccentric anomaly
87.6122°
Mean motion
3.75477 °/min
Orbital period
95.88 mins
BSTAR
1.622e-9
Loading maneuver chart data...
Computing Atmospheric mass density...
Loading historical data...
Loading historical data...
Loading historical data...
Loading historical data...
Loading historical data...
Loading historical data...
Loading historical data...

Documentation

Showing up to 5 results
|